Regional Weather Roundup
Issued by NWS

Home | Current Version | Previous Version | Graphics & Text | Print | Product List | Glossary Off
Versions: 1 2 3 4 5 6 7 8 9 10 11 12 13 14 15 16 17 18 19 20 21 22 23 24 25 26 27 28 29 30 31 32 33 34 35 36 37 38 39 40 41 42 43 44 45 46 47 48 49 50

000
ASUS43 KTOP 030508
RWRKS

WEATHER ROUNDUP FOR KANSAS
NATIONAL WEATHER SERVICE GOODLAND KS
1200 AM CDT TUE MAY 03 2016

NOTE:  "FAIR" INDICATES FEW OR NO CLOUDS BELOW 12,000 FEET WITH NO
SIGNIFICANT WEATHER AND/OR OBSTRUCTIONS TO VISIBILITY.

KSZ001>006-013>018-027>032-041>047-030600-
NORTHWEST KANSAS

CITY           SKY/WX    TMP DP  RH WIND       PRES   REMARKS
GOODLAND       CLOUDY    48  37  65 W6        30.06F
HAYS           CLOUDY    48  36  61 SE8       30.05F
HILL CITY      CLOUDY    49  40  71 E5        30.05F
RUSSELL        CLOUDY    50  41  71 SE9       30.04F
$$

KSZ061>065-074>080-084>089-030600-
SOUTHWEST KANSAS

CITY           SKY/WX    TMP DP  RH WIND       PRES   REMARKS
DODGE CITY     PTCLDY    46  37  71 SW7       30.08F
ELKHART          N/A     44  34  68 SE7         N/A
GARDEN CITY    PTCLDY    46  37  71 S8        30.07F
GREAT BEND     MOCLDY    48  37  66 SE6       30.07S
LIBERAL        CLEAR     43  30  61 S8        30.12S
PRATT          CLEAR     43  37  80 S5        30.07F
$$

KSZ066>073-081>083-090>101-030600-
SOUTHEAST KANSAS

CITY           SKY/WX    TMP DP  RH WIND       PRES   REMARKS
CHANUTE        CLEAR     44  42  93 CALM      30.08F FOG
COFFEYVILLE    CLEAR     46  45  96 CALM      30.09F
HUTCHINSON     PTCLDY    42  39  89 CALM      30.08F
MEDICINE LODGE   N/A     51  40  65 S6        30.08F
NEWTON         CLEAR     45  36  70 SE7       30.09F
PARSONS        CLEAR     44  43  96 CALM      30.10F
WICHITA INTL   PTCLDY    47  40  76 SW3       30.08F
WICHITA JABRA  CLEAR     46  41  82 SE5       30.08F
WINFIELD       CLEAR     46  41  82 CALM      30.23F
$$

KSZ007>012-019>026-033>040-048>060-102>105-030600-
NORTHEAST KANSAS

CITY           SKY/WX    TMP DP  RH WIND       PRES   REMARKS
CONCORDIA      CLEAR     47  35  63 S7        30.05F
EMPORIA        PTCLDY    47  43  86 S5        30.08F
LAWRENCE       PTCLDY    43  41  93 CALM      30.08S FOG
MANHATTAN      CLEAR     47  42  83 CALM      30.07F
MARYSVILLE     CLEAR     46  43  87 S6        30.06S
OLATHE IND     PTCLDY    47  44  90 W3        30.08S
OLATHE EXE     PTCLDY    47  44  90 W5        30.07F
SALINA         PTCLDY    48  42  80 S8        30.06F
TOPEKA BILLARD CLEAR     47  44  90 CALM      30.07F
TOPEKA FORBES  PTCLDY    47  43  86 SW3       30.07F
$$




USA.gov is the U.S. government's official web portal to all federal, state and local government web resources and services.